Location: Unspecified
(48.9873°N, 0.0000°E)
Time: 04:19:17
(UTC+00:00)

STRAND 1 - Visible Passes

Search period start: 04 April 2026 00:00
Search period end: 14 April 2026 00:00
Orbit: 761 x 775 km, 98.4° (Epoch: 28 March)

Date Brightness Start Highest point End Pass type
(mag) Time Alt. Az. Time Alt. Az. Time Alt. Az.
4 Apr ? 03:01:45 10° ENE 03:03:55 13° NE 03:06:06 10° NNE visible
4 Apr ? 04:37:03 10° SSE 04:42:06 70° ENE 04:47:09 10° N visible
4 Apr ? 20:02:11 10° NNW 20:04:28 13° NW 20:06:45 10° W visible
5 Apr ? 04:01:43 10° SE 04:06:19 36° ENE 04:10:55 10° N visible
5 Apr ? 19:25:02 10° N 19:29:00 24° WNW 19:32:57 10° WSW visible
6 Apr ? 03:27:06 10° ESE 03:30:42 20° ENE 03:34:19 10° NNE visible
7 Apr ? 02:53:58 10° ENE 02:55:17 11° NE 02:56:36 10° NE visible
7 Apr ? 04:28:21 10° SSE 04:33:20 59° ENE 04:38:20 10° N visible
7 Apr ? 19:52:59 10° NNW 19:55:49 15° NW 19:58:39 10° W visible
8 Apr ? 03:53:11 10° SE 03:57:35 31° ENE 04:02:01 10° N visible
8 Apr ? 19:16:05 10° N 19:20:18 27° WNW 19:24:31 10° WSW visible
9 Apr ? 03:18:47 10° E 03:22:02 17° NE 03:25:16 10° NNE visible
10 Apr ? 04:19:42 10° SE 04:24:35 50° ENE 04:29:29 10° N visible
10 Apr ? 19:43:53 10° NNW 19:47:09 17° WNW 19:50:25 10° W visible
11 Apr ? 03:44:41 10° ESE 03:48:52 27° ENE 03:53:05 10° N visible
12 Apr ? 03:10:34 10° E 03:13:21 15° NE 03:16:10 10° NNE visible
12 Apr ? 20:12:30 10° NW 20:13:53 11° NW 20:15:16 10° WNW visible
13 Apr ? 04:11:04 10° SE 04:15:49 43° ENE 04:20:36 10° N visible
13 Apr ? 19:34:50 10° NNW 19:38:28 20° WNW 19:42:05 10° WSW visible
